Tracking 32139 objects as of 15-Nov-2025
HD Live streaming from Space Station
objects crossing your sky now

SZ-21

Track SZ-21 now!
10-day predictions


NORAD ID: 66263
Int'l Code: 2025-246A
Perigee: 388.8 km
Apogee: 394.1 km
Inclination: 41.5 °
Period: 92.2 minutes
Semi major axis: 6762 km
RCS: Unknown
Launch date: September 3, 2025
Source: People's Republic of China (PRC)
Launch site: Jiuquan Satellite Launch Center, China (JSC)
Your satellite tracking list
Your tracking list is empty




NASA's NSSDC Master Catalog

Two Line Element Set (TLE):
1 66263U 25246A   25318.01442622  .00031369  00000-0  36298-3 0  9995
2 66263  41.4648 191.0371 0003884  22.4689 337.6319 15.61166938258135
Source of the keplerian elements: AFSPC